« Back
NWS Peachtree City, Ga » Text Product » GA Regional Weather Roundup


Printer-friendly Version
Current Version              Previous Versions:   1  2  3  4  5  6  7  8  9  

Regional Weather Roundup

815
ASUS42 KFFC 032203
RWRGA
WEATHER ROUNDUP FOR GEORGIA
NATIONAL WEATHER SERVICE PEACHTREE CITY GA
600 PM EDT TUE MAY 03 2016

NOTE: "FAIR" INDICATES FEW OR NO CLOUDS BELOW 12,000 FEET WITH NO
SIGNIFICANT WEATHER AND/OR OBSTRUCTIONS TO VISIBILITY.

* = USE WITH CAUTION. THE STATIONS MARKED WITH AN ASTERISK MAY NOT
REPORT WEATHER SUCH AS PRECIPITATION, FOG, OR THUNDER AND ARE NOT
QUALITY CONTROLLED BY NWS.

THE REMARK "TC" DENOTES TEMPERATURE READING IN DEGREES CELSIUS.

GAZ001>058-032300-
NORTH GEORGIA

CITY           SKY/WX    TMP DP  RH WIND       PRES   REMARKS
ATLANTA        PTSUNNY   76  57  51 W14       29.83F
ATHENS         MOSUNNY   78  58  49 W10G22    29.80S
CHAMBLEE       MOSUNNY   76  56  49 W12G18    29.83S
PEACHTREE CITY MOSUNNY   76  59  55 NW10      29.84F
ROME           PTSUNNY   75  51  43 W10G18    29.85R
WEST ATLANTA   MOSUNNY   73  55  53 NW10      29.84S
GAINESVILLE    MOSUNNY   74  55  51 W12G22    29.84S
CARTERSVILLE   PTSUNNY   74  52  46 VRB5      29.85S


CITY           SKY/WX    TMP DP  RH WIND       PRES   REMARKS
DALTON*        MOSUNNY   72  52  49 NW10      29.85S
LAWRENCEVILLE* MOSUNNY   75  57  53 W9G18     29.83F
MARIETTA       MOSUNNY   74  56  52 W15       29.84S
KENNESAW*      MOSUNNY   73  48  40 W12       29.81F
CANTON*        MOSUNNY   73  43  33 W13       29.86S
BLAIRSVILLE*     N/A    N/A N/A N/A MISG      29.86R
$$

GAZ059>098-102>109-032300-
CENTRAL GEORGIA

CITY           SKY/WX    TMP DP  RH WIND       PRES   REMARKS
AUGUSTA-BUSH   CLOUDY    77  68  73 SW6       29.78S
AUGUSTA-DANIEL MOSUNNY   75  68  78 SW7       29.80F
COLUMBUS       PTSUNNY   77  62  59 NW12      29.83F
MACON          CLOUDY    74  66  76 NW12      29.83R
ROBINS AFB     CLOUDY    76  67  73 NW12      29.82R


CITY           SKY/WX    TMP DP  RH WIND       PRES   REMARKS
LAGRANGE*      PTSUNNY   77  66  69 NW10      29.84F
SYLVANIA*      CLOUDY    85  69  57 W9        29.79S
MILLEDGEVILLE* CLOUDY    77  66  69 CALM      29.81S
$$

GAZ099>101-110>166-032300-
SOUTH GEORGIA

CITY           SKY/WX    TMP DP  RH WIND       PRES   REMARKS
SAVANNAH       MOSUNNY   87  64  46 SW10      29.78S
VALDOSTA       TSTM      70  68  93 VRB5      29.85S FOG
ALMA           CLOUDY    78  69  73 S10       29.81R
ST SIMONS      MOSUNNY   85  65  51 W10       29.81R
FT STEWART     PTSUNNY   86  66  50 SW9G18    29.77S
ALBANY         CLOUDY    74  70  87 S13       29.84R
HUNTER AFB     MOSUNNY   88  69  53 SW9       29.76S HX  91
MOODY AFB      CLOUDY    79  67  66 SW35G41   29.87R THUNDER
BRUNSWICK      MOSUNNY   88  70  55 NW5       29.81R HX  92


CITY           SKY/WX    TMP DP  RH WIND       PRES   REMARKS
BAINBRIDGE*    MOSUNNY   79  68  69 W7        29.82S
MOULTRIE*      CLOUDY    81  66  61 W8        29.84S
VIDALIA*       CLOUDY    84  64  51 NW8       29.80S
WAYCROSS*      CLOUDY    80  70  72 NW3       29.82R
DOUGLAS*       CLOUDY    81  68  65 SW9       29.83R
$$




USA.gov is the U.S. government's official web portal to all federal, state and local government web resources and services.